K4GZX-11 Weather Reports


Display with metric or nautical units.
time (UTC)temp
F
wind
direction
speed
MPH
gust
MPH
rain 1hr
in
rain 24hr
in
rain mn
in
humidity
%
barometer
mb
20260904215844 95 103 0.0 0.0 0.00 0.00 0.00 43 1013.9
20260904215351 95 103 0.0 0.0 0.00 0.00 0.00 44 1013.9
20260904214859 95 103 0.0 0.0 0.00 0.00 0.00 43 1014.0
20260904214406 95 103 0.0 0.0 0.00 0.00 0.00 43 1014.0
20260904213831 95 103 0.0 0.0 0.00 0.00 0.00 43 1014.1
20260904213330 95 103 0.0 4.0 0.00 0.00 0.00 43 1014.0
20260904212830 95 103 0.0 4.0 0.00 0.00 0.00 43 1014.0
20260904212330 95 103 0.0 1.0 0.00 0.00 0.00 43 1014.1
20260904211830 95 103 0.0 1.0 0.00 0.00 0.00 43 1014.1
20260904211330 95 103 0.0 0.0 0.00 0.00 0.00 44 1014.2
20260904210830 95 103 0.0 0.0 0.00 0.00 0.00 42 1014.2
20260904210330 96 103 0.0 0.0 0.00 0.00 0.00 43 1014.2
20260904205830 96 103 0.0 0.0 0.00 0.00 0.00 43 1014.3
20260904205330 96 103 0.0 0.0 0.00 0.00 0.00 44 1014.3
20260904204830 96 103 0.0 0.0 0.00 0.00 0.00 44 1014.5
20260904204330 96 103 0.0 0.0 0.00 0.00 0.00 44 1014.4
20260904203830 96 103 0.0 0.0 0.00 0.00 0.00 43 1014.6
20260904203330 96 103 0.0 0.0 0.00 0.00 0.00 43 1014.6
20260904202830 96 103 0.0 0.0 0.00 0.00 0.00 44 1014.5
20260904202330 96 103 0.0 0.0 0.00 0.00 0.00 42 1014.7
20260904201830 96 103 0.0 0.0 0.00 0.00 0.00 42 1014.6
20260904201335 96 103 0.0 0.0 0.00 0.00 0.00 42 1014.7
20260904200842 96 103 0.0 0.0 0.00 0.00 0.00 42 1014.8
20260904200330 96 0.0 0.0 0.00 0.00 0.00 42 1014.8
20260904195830 0 0.0 0.0 0.00 0.00 0.00 1015.0
20260904195330 0 0.0 0.0 0.00 0.00 0.00 1015.2
20260904194830 96 103 0.0 0.0 0.00 0.00 0.00 1015.2
20260904194330 96 103 0.0 0.0 0.00 0.00 0.00 43 1015.2
20260904193830 96 103 0.0 0.0 0.00 0.00 0.00 43 1015.4
20260904193337 97 103 0.0 1.0 0.00 0.00 0.00 43 1015.5
20260904192845 97 103 0.0 1.0 0.00 0.00 0.00 43 1015.6
20260904192330 97 103 0.0 0.0 0.00 0.00 0.00 42 1015.8
20260904191830 97 103 0.0 0.0 0.00 0.00 0.00 42 1015.8
20260904191330 97 103 0.0 0.0 0.00 0.00 0.00 42 1015.9
20260904190830 97 103 0.0 0.0 0.00 0.00 0.00 44 1016.0
20260904190330 97 103 0.0 0.0 0.00 0.00 0.00 44 1016.2
20260904185836 97 103 0.0 0.0 0.00 0.00 0.00 43 1016.4
20260904185343 98 103 0.0 0.0 0.00 0.00 0.00 43 1016.2
20260904184839 99 103 0.0 0.0 0.00 0.00 0.00 42 1016.2
20260904184347 99 103 0.0 0.0 0.00 0.00 0.00 42 1016.2
20260904183854 100 103 0.0 0.0 0.00 0.00 0.00 41 1016.4
20260904183330 100 103 0.0 0.0 0.00 0.00 0.00 41 1016.4
20260904182835 99 103 0.0 0.0 0.00 0.00 0.00 43 1016.5
20260904182342 99 103 0.0 0.0 0.00 0.00 0.00 43 1016.5
20260904181834 99 103 0.0 0.0 0.00 0.00 0.00 43 1016.6
20260904181342 99 103 0.0 0.0 0.00 0.00 0.00 44 1016.6
20260904180830 99 103 0.0 0.0 0.00 0.00 0.00 44 1016.7
20260904180334 99 103 0.0 0.0 0.00 0.00 0.00 43 1016.7
20260904175842 100 103 0.0 0.0 0.00 0.00 0.00 43 1016.8
20260904175330 99 103 0.0 0.0 0.00 0.00 0.00 45 1016.8
20260904174830 99 103 0.0 0.0 0.00 0.00 0.00 43 1016.8
20260904174330 98 103 0.0 0.0 0.00 0.00 0.00 45 1016.9
20260904173830 98 103 0.0 0.0 0.00 0.00 0.00 48 1017.0
20260904173330 97 103 0.0 0.0 0.00 0.00 0.00 48 1017.0
20260904172830 96 103 0.0 0.0 0.00 0.00 0.00 49 1017.1
20260904172330 96 103 0.0 0.0 0.00 0.00 0.00 48 1017.2
20260904171830 96 103 0.0 0.0 0.00 0.00 0.00 49 1017.2
20260904171259 96 103 0.0 0.0 0.00 0.00 0.00 48 1017.3
20260904170759 96 103 0.0 0.0 0.00 0.00 0.00 49 1017.3
20260904170259 96 103 0.0 0.0 0.00 0.00 0.00 49 1017.3
20260904165759 96 103 0.0 0.0 0.00 0.00 0.00 51 1017.5
20260904165259 94 103 0.0 0.0 0.00 0.00 0.00 51 1017.5
20260904164759 94 103 0.0 0.0 0.00 0.00 0.00 53 1017.6
20260904164259 94 103 0.0 0.0 0.00 0.00 0.00 53 1017.6
20260904163759 93 103 0.0 0.0 0.00 0.00 0.00 53 1017.6
20260904163304 93 103 0.0 0.0 0.00 0.00 0.00 54 1017.6
20260904162811 92 103 0.0 0.0 0.00 0.00 0.00 55 1017.7
20260904162259 92 103 0.0 0.0 0.00 0.00 0.00 56 1017.8
20260904161759 92 103 0.0 0.0 0.00 0.00 0.00 56 1017.9
20260904161301 92 103 0.0 0.0 0.00 0.00 0.00 57 1018.0
20260904160808 91 103 0.0 0.0 0.00 0.00 0.00 57 1018.0
20260904160316 91 103 0.0 0.0 0.00 0.00 0.00 59 1018.1
20260904155811 90 103 0.0 0.0 0.00 0.00 0.00 60 1018.2
20260904155259 90 103 0.0 0.0 0.00 0.00 0.00 59 1018.2
20260904154804 90 103 0.0 0.0 0.00 0.00 0.00 60 1018.2
20260904154311 89 103 0.0 0.0 0.00 0.00 0.00 62 1018.3
20260904153806 89 103 0.0 0.0 0.00 0.00 0.00 62 1018.4
20260904153313 88 103 0.0 0.0 0.00 0.00 0.00 64 1018.4
20260904152821 88 103 0.0 0.0 0.00 0.00 0.00 65 1018.3
20260904152323 87 103 0.0 0.0 0.00 0.00 0.00 66 1018.4
20260904151759 87 103 0.0 0.0 0.00 0.00 0.00 66 1018.3
20260904151259 86 103 0.0 0.0 0.00 0.00 0.00 67 1018.3
20260904150759 85 103 0.0 0.0 0.00 0.00 0.00 69 1018.2
20260904150259 85 103 0.0 0.0 0.00 0.00 0.00 69 1018.2
20260904145759 84 103 0.0 0.0 0.00 0.00 0.00 71 1018.2
20260904145259 84 103 0.0 0.0 0.00 0.00 0.00 72 1018.2
20260904144759 83 103 0.0 0.0 0.00 0.00 0.00 73 1018.1
20260904144259 83 103 0.0 0.0 0.00 0.00 0.00 75 1018.1
20260904143803 82 103 0.0 0.0 0.00 0.00 0.00 76 1018.1
20260904143311 82 103 0.0 0.0 0.00 0.00 0.00 77 1018.1
20260904142759 81 103 0.0 0.0 0.00 0.00 0.00 79 1018.0
20260904142259 80 103 0.0 0.0 0.00 0.00 0.00 80 1017.9
20260904141804 80 103 0.0 0.0 0.00 0.00 0.00 80 1017.9
20260904141311 80 103 0.0 0.0 0.00 0.00 0.00 82 1017.9
20260904140759 79 103 0.0 0.0 0.00 0.00 0.00 82 1017.9
20260904140304 79 103 0.0 0.0 0.00 0.00 0.00 83 1017.9
20260904135811 78 103 0.0 0.0 0.00 0.00 0.00 83 1018.1
20260904135259 78 103 0.0 0.0 0.00 0.00 0.00 84 1018.0
20260904134759 77 103 0.0 0.0 0.00 0.00 0.00 84 1018.1
20260904133855 77 103 0.0 0.0 0.00 0.00 0.00 85 1018.0
20260904133403 76 103 0.0 0.0 0.00 0.00 0.00 85 1018.1
20260904132858 76 103 0.0 0.0 0.00 0.00 0.00 85 1018.2
20260904132346 76 103 0.0 0.0 0.00 0.00 0.00 85 1018.2
20260904131846 75 103 0.0 0.0 0.00 0.00 0.00 85 1018.2
20260904131350 75 103 0.0 0.0 0.00 0.00 0.00 85 1018.2
20260904130858 74 103 0.0 0.0 0.00 0.00 0.00 86 1018.2
20260904130346 74 103 0.0 0.0 0.00 0.00 0.00 86 1018.2
20260904125851 74 103 0.0 0.0 0.00 0.00 0.00 86 1018.2
20260904125358 74 103 0.0 0.0 0.00 0.00 0.00 86 1018.3
20260904124846 73 103 0.0 0.0 0.00 0.00 0.00 85 1018.3
20260904124346 73 103 0.0 0.0 0.00 0.00 0.00 85 1018.3
20260904123846 73 103 0.0 0.0 0.00 0.00 0.00 85 1018.2
20260904123346 73 103 0.0 0.0 0.00 0.00 0.00 85 1018.3
20260904122846 73 103 0.0 0.0 0.00 0.00 0.00 85 1018.4
20260904122346 73 103 0.0 0.0 0.00 0.00 0.00 85 1018.4
20260904121846 73 103 0.0 0.0 0.00 0.00 0.00 84 1018.4
20260904121346 72 103 0.0 0.0 0.00 0.00 0.00 84 1018.4
20260904120846 72 103 0.0 0.0 0.00 0.00 0.00 84 1018.4
20260904120348 72 103 0.0 0.0 0.00 0.00 0.00 84 1018.3
20260904115855 72 103 0.0 0.0 0.00 0.00 0.00 84 1018.3
20260904115403 72 103 0.0 0.0 0.00 0.00 0.00 84 1018.2
20260904114858 72 103 0.0 0.0 0.00 0.00 0.00 84 1018.1
20260904114346 72 103 0.0 0.0 0.00 0.00 0.00 84 1018.1
20260904113846 72 103 0.0 0.0 0.00 0.00 0.00 84 1018.1
20260904113352 73 103 0.0 0.0 0.00 0.00 0.00 84 1018.0
20260904112900 73 103 0.0 0.0 0.00 0.00 0.00 84 1017.9
20260904112408 73 103 0.0 0.0 0.00 0.00 0.00 84 1017.9
20260904111903 73 103 0.0 0.0 0.00 0.00 0.00 84 1017.9
20260904111358 73 103 0.0 0.0 0.00 0.00 0.00 84 1018.0
20260904110846 73 103 0.0 0.0 0.00 0.00 0.00 84 1017.9
20260904110346 73 103 0.0 0.0 0.00 0.00 0.00 83 1017.8
20260904105846 73 103 0.0 0.0 0.00 0.00 0.00 83 1017.8
20260904105346 73 103 0.0 0.0 0.00 0.00 0.00 83 1017.8
20260904104846 73 103 0.0 0.0 0.00 0.00 0.00 83 1017.8
20260904104346 73 103 0.0 0.0 0.00 0.00 0.00 83 1017.7
20260904103846 73 103 0.0 0.0 0.00 0.00 0.00 83 1017.8
20260904103346 73 103 0.0 0.0 0.00 0.00 0.00 83 1017.7
20260904102846 73 103 0.0 0.0 0.00 0.00 0.00 83 1017.6
20260904102346 73 103 0.0 0.0 0.00 0.00 0.00 83 1017.6
20260904101846 73 103 0.0 0.0 0.00 0.00 0.00 83 1017.5
20260904101346 73 103 0.0 0.0 0.00 0.00 0.00 83 1017.4
20260904100846 73 103 0.0 0.0 0.00 0.00 0.00 83 1017.4
20260904100346 74 103 0.0 0.0 0.00 0.00 0.00 82 1017.4
20260904095848 74 103 0.0 0.0 0.00 0.00 0.00 82 1017.4
20260904095355 74 103 0.0 0.0 0.00 0.00 0.00 82 1017.3
20260904094903 74 103 0.0 0.0 0.00 0.00 0.00 82 1017.3
20260904094410 74 103 0.0 0.0 0.00 0.00 0.00 82 1017.2
20260904093846 74 103 0.0 0.0 0.00 0.00 0.00 82 1017.2
20260904093346 74 103 0.0 0.0 0.00 0.00 0.00 82 1017.3
20260904092846 74 103 0.0 0.0 0.00 0.00 0.00 82 1017.3
20260904092346 74 103 0.0 0.0 0.00 0.00 0.00 82 1017.1
20260904091846 74 103 0.0 0.0 0.00 0.00 0.00 82 1017.0
20260904091346 74 103 0.0 0.0 0.00 0.00 0.00 82 1017.0
20260904090846 74 103 0.0 0.0 0.00 0.00 0.00 82 1016.9
20260904090346 74 103 0.0 0.0 0.00 0.00 0.00 82 1016.9
20260904085846 74 103 0.0 0.0 0.00 0.00 0.00 82 1016.9
20260904085346 74 103 0.0 0.0 0.00 0.00 0.00 82 1016.9
20260904084846 75 103 0.0 0.0 0.00 0.00 0.00 82 1016.9
20260904084346 75 103 0.0 0.0 0.00 0.00 0.00 82 1017.0
20260904083846 75 103 0.0 0.0 0.00 0.00 0.00 82 1016.9
20260904083346 75 103 0.0 0.0 0.00 0.00 0.00 82 1016.8
20260904082846 75 103 0.0 0.0 0.00 0.00 0.00 82 1016.7
20260904082350 75 103 0.0 0.0 0.00 0.00 0.00 82 1016.8
20260904081858 75 103 0.0 0.0 0.00 0.00 0.00 82 1016.7
20260904081346 75 103 0.0 0.0 0.00 0.00 0.00 81 1016.7
20260904080846 75 103 0.0 0.0 0.00 0.00 0.00 81 1016.8
20260904080346 75 103 0.0 0.0 0.00 0.00 0.00 81 1016.7
20260904075846 76 103 0.0 0.0 0.00 0.00 0.00 80 1016.8
20260904075346 76 103 0.0 0.0 0.00 0.00 0.00 80 1016.7
20260904074850 76 103 0.0 0.0 0.00 0.00 0.00 80 1016.7
20260904074358 76 103 0.0 0.0 0.00 0.00 0.00 80 1016.7
20260904073846 76 103 0.0 0.0 0.00 0.00 0.00 80 1016.7
20260904073346 76 103 0.0 0.0 0.00 0.00 0.00 80 1016.8
20260904072846 76 103 0.0 0.0 0.00 0.00 0.00 79 1016.7
20260904072346 76 103 0.0 0.0 0.00 0.00 0.00 79 1016.6
20260904071846 76 103 0.0 0.0 0.00 0.00 0.00 79 1016.6
20260904071346 76 103 0.0 0.0 0.00 0.00 0.00 80 1016.5
20260904070850 76 103 0.0 0.0 0.00 0.00 0.00 79 1016.6
20260904070358 76 103 0.0 0.0 0.00 0.00 0.00 79 1016.7
20260904065846 76 103 0.0 0.0 0.00 0.00 0.00 79 1016.7
20260904065346 77 103 0.0 0.0 0.00 0.00 0.00 79 1016.7
20260904064846 77 103 0.0 0.0 0.00 0.00 0.00 79 1016.8
20260904064346 77 103 0.0 0.0 0.00 0.00 0.00 79 1016.8
20260904063846 77 103 0.0 0.0 0.00 0.00 0.00 79 1016.8
20260904063346 77 103 0.0 0.0 0.00 0.00 0.00 79 1016.9
20260904062846 77 103 0.0 0.0 0.00 0.00 0.00 79 1016.9
20260904062346 77 103 0.0 0.0 0.00 0.00 0.00 79 1016.9
20260904061846 77 103 0.0 0.0 0.00 0.00 0.00 78 1017.0
20260904061351 78 103 0.0 0.0 0.00 0.00 0.00 77 1017.0
20260904060859 78 103 0.0 0.0 0.00 0.00 0.00 77 1017.1
20260904060346 78 103 0.0 0.0 0.00 0.00 0.00 77 1017.1
20260904055851 78 103 0.0 0.0 0.00 0.00 0.00 77 1017.1
20260904055358 78 103 0.0 0.0 0.00 0.00 0.00 76 1017.1
20260904054846 78 103 0.0 0.0 0.00 0.00 0.00 77 1017.2
20260904054347 78 103 0.0 0.0 0.00 0.00 0.00 77 1017.2
20260904053854 78 103 0.0 0.0 0.00 0.00 0.00 77 1017.3
20260904053402 78 103 0.0 0.0 0.00 0.00 0.00 76 1017.3
20260904052857 79 103 0.0 0.0 0.00 0.00 0.00 76 1017.4
20260904052405 79 103 0.0 0.0 0.00 0.00 0.00 76 1017.3
20260904051912 79 103 0.0 0.0 0.00 0.00 0.00 76 1017.4
20260904051420 79 103 0.0 0.0 0.00 0.00 0.00 76 1017.4
20260904050903 79 103 0.0 0.0 0.00 0.00 0.00 76 1017.4
20260904050410 79 103 0.0 0.0 0.00 0.00 0.00 75 1017.4
20260904045846 79 103 0.0 0.0 0.00 0.00 0.00 75 1017.4
20260904045346 79 103 0.0 0.0 0.00 0.00 0.00 75 1017.4
20260904044846 79 103 0.0 0.0 0.00 0.00 0.00 75 1017.4
20260904044346 80 103 0.0 0.0 0.00 0.00 0.00 75 1017.4
20260904043846 80 103 0.0 0.0 0.00 0.00 0.00 74 1017.4
20260904043346 80 103 0.0 0.0 0.00 0.00 0.00 74 1017.5
20260904042846 80 103 0.0 0.0 0.00 0.00 0.00 74 1017.5
20260904042346 80 103 0.0 0.0 0.00 0.00 0.00 74 1017.5
20260904041846 80 103 0.0 0.0 0.00 0.00 0.00 74 1017.4
20260904041354 80 103 0.0 0.0 0.00 0.00 0.00 73 1017.4
20260904040901 81 103 0.0 0.0 0.00 0.00 0.00 73 1017.4
20260904040409 81 103 0.0 0.0 0.00 0.00 0.00 73 1017.4
20260904035916 81 103 0.0 0.0 0.00 0.00 0.00 73 1017.4
20260904035412 81 103 0.0 0.0 0.00 0.00 0.00 73 1017.4
20260904034919 81 103 0.0 0.0 0.00 0.00 0.00 72 1017.5
20260904034427 81 103 0.0 0.0 0.00 0.00 0.00 72 1017.5
20260904033922 82 103 0.0 0.0 0.00 0.00 0.00 71 1017.5
20260904033346 82 103 0.0 0.0 0.00 0.00 0.00 71 1017.6
20260904032846 82 103 0.0 0.0 0.00 0.00 0.00 70 1017.6
20260904032346 82 103 0.0 0.0 0.00 0.00 0.00 70 1017.6
20260904031846 82 103 0.0 0.0 0.00 0.00 0.00 70 1017.6
20260904031346 82 103 0.0 0.0 0.00 0.00 0.00 70 1017.6
20260904030846 83 103 0.0 0.0 0.00 0.00 0.00 69 1017.6
20260904030346 83 103 0.0 0.0 0.00 0.00 0.00 69 1017.6
20260904025846 83 103 0.0 0.0 0.00 0.00 0.00 67 1017.5
20260904025346 83 103 0.0 0.0 0.00 0.00 0.00 67 1017.6
20260904024846 84 103 0.0 0.0 0.00 0.00 0.00 67 1017.7
20260904024346 84 103 0.0 0.0 0.00 0.00 0.00 67 1017.7
20260904023846 84 103 0.0 0.0 0.00 0.00 0.00 66 1017.6
20260904023350 84 103 0.0 0.0 0.00 0.00 0.00 65 1017.7
20260904022858 84 103 0.0 0.0 0.00 0.00 0.00 65 1017.6
20260904022345 84 103 0.0 0.0 0.00 0.00 0.00 65 1017.6
20260904021850 85 103 0.0 0.0 0.00 0.00 0.00 64 1017.6
20260904021358 85 103 0.0 0.0 0.00 0.00 0.00 64 1017.5
20260904020906 85 103 0.0 0.0 0.00 0.00 0.00 63 1017.4
20260904020413 85 103 0.0 0.0 0.00 0.00 0.00 63 1017.4
20260904015857 86 103 0.0 0.0 0.00 0.00 0.00 63 1017.3
20260904015404 86 103 0.0 0.0 0.00 0.00 0.00 62 1017.3
20260904014859 86 103 0.0 0.0 0.00 0.00 0.00 62 1017.1
20260904014355 86 103 0.0 0.0 0.00 0.00 0.00 61 1017.0
20260904013902 87 103 0.0 0.0 0.00 0.00 0.00 61 1017.0
20260904013358 87 103 0.0 0.0 0.00 0.00 0.00 60 1016.9
20260904012845 88 103 0.0 0.0 0.00 0.00 0.00 59 1016.9
20260904012346 88 103 0.0 0.0 0.00 0.00 0.00 59 1016.9
20260904011845 88 103 0.0 0.0 0.00 0.00 0.00 57 1016.8
20260904011350 88 103 0.0 0.0 0.00 0.00 0.00 57 1016.7
20260904010858 89 103 0.0 0.0 0.00 0.00 0.00 57 1016.7
20260904010345 89 103 0.0 0.0 0.00 0.00 0.00 56 1016.6
20260904005846 89 103 0.0 0.0 0.00 0.00 0.00 55 1016.5
20260904005345 89 103 0.0 0.0 0.00 0.00 0.00 55 1016.4
20260904004845 90 103 0.0 0.0 0.00 0.00 0.00 56 1016.3
20260904004346 90 103 0.0 0.0 0.00 0.00 0.00 55 1016.1
20260904003846 90 103 0.0 0.0 0.00 0.00 0.00 54 1016.0
20260904003350 90 103 0.0 0.0 0.00 0.00 0.00 54 1015.9
20260904002858 91 103 0.0 0.0 0.00 0.00 0.00 53 1015.9
20260904002350 91 103 0.0 0.0 0.00 0.00 0.00 52 1015.9
20260904001858 91 103 0.0 0.0 0.00 0.00 0.00 52 1015.8
20260904001345 91 103 0.0 0.0 0.00 0.00 0.00 51 1015.7
20260904000850 92 103 0.0 0.0 0.00 0.00 0.00 50 1015.5
20260904000358 92 103 0.0 0.0 0.00 0.00 0.00 50 1015.4
20260903235846 92 103 0.0 0.0 0.00 0.00 0.00 50 1015.4
20260903235346 92 103 0.0 0.0 0.00 0.00 0.00 49 1015.4
20260903234846 92 103 0.0 0.0 0.00 0.00 0.00 49 1015.4
20260903234350 93 103 0.0 0.0 0.00 0.00 0.00 49 1015.4
20260903233858 93 103 0.0 0.0 0.00 0.00 0.00 48 1015.4
20260903233346 93 103 0.0 0.0 0.00 0.00 0.00 48 1015.4
20260903232845 93 103 0.0 0.0 0.00 0.00 0.00 48 1015.4
20260903232346 93 103 0.0 0.0 0.00 0.00 0.00 48 1015.4
20260903231846 93 103 0.0 0.0 0.00 0.00 0.00 47 1015.3
20260903231346 93 103 0.0 0.0 0.00 0.00 0.00 47 1015.3
20260903230845 94 103 0.0 0.0 0.00 0.00 0.00 47 1015.4
20260903230345 94 103 0.0 0.0 0.00 0.00 0.00 47 1015.3
20260903225845 94 103 0.0 0.0 0.00 0.00 0.00 46 1015.3
20260903225345 94 103 0.0 0.0 0.00 0.00 0.00 47 1015.4
20260903224845 94 103 0.0 0.0 0.00 0.00 0.00 46 1015.4
20260903224345 94 103 0.0 0.0 0.00 0.00 0.00 46 1015.3
20260903223850 95 103 0.0 0.0 0.00 0.00 0.00 46 1015.3
20260903223358 95 103 0.0 0.0 0.00 0.00 0.00 45 1015.2
20260903222845 95 103 0.0 0.0 0.00 0.00 0.00 45 1015.3
20260903222346 95 103 0.0 0.0 0.00 0.00 0.00 44 1015.3
20260903221845 95 103 0.0 0.0 0.00 0.00 0.00 43 1015.2
20260903221345 96 103 0.0 0.0 0.00 0.00 0.00 43 1015.1
20260903220846 96 103 0.0 0.0 0.00 0.00 0.00 43 1015.1
20260903220345 96 103 0.0 0.0 0.00 0.00 0.00 43 1015.2